Location: Berg
(47.2344°N, 9.5296°E)
Time: 22:04:40
(UTC+00:00)

COSMOS 2406 - Pass Details

Date: 24 January 2021
Orbit: 841 x 865 km, 71.0° (Epoch: 04 March)

Event Time Altitude Azimuth Distance (km) Brightness Sun altitude
Rises 18:22:44 0° 332° (NNW) 3,458 6.7 -22.0°
Reaches altitude 10° 18:25:13 10° 333° (NNW) 2,517 5.9 -22.4°
Maximum altitude 18:31:01 90° 56° (NE) 870 3.1 -23.4°
Enters shadow 18:34:34 25° 154° (SSE) 1,681 4.5 -24.0°
